Regional Weather Roundup
Issued by NWS

Home | Current Version | Previous Version | Graphics & Text | Print | Product List | Glossary On
Versions: 1 2 3 4 5 6 7 8 9 10 11 12 13 14 15 16 17 18 19 20 21 22 23 24 25 26 27 28 29 30 31 32 33 34 35 36 37 38 39 40 41 42 43 44 45 46 47 48 49 50
624
ASUS45 KBOI 240310
RWRID

IDAHO REGIONAL WEATHER ROUNDUP
NATIONAL WEATHER SERVICE BOISE ID
900 PM MDT SUN APR 23 2017

NOTE: "FAIR" INDICATES FEW OR NO CLOUDS BELOW 12000 FEET
WITH NO SIGNIFICANT WEATHER AND/OR OBSTRUCTIONS TO VISIBILITY

IDZ012-014-240400-
SOUTHWEST IDAHO


CITY           SKY/WX    TMP DP  RH WIND       PRES   REMARKS
BOISE          CLOUDY    57  40  52 NE5       29.76S
CALDWELL       CLOUDY    58  40  51 CALM      29.75S
MOUNTAIN HOME  CLOUDY    55  40  58 CALM      29.76S
$$

IDZ016-017-240400-
SOUTHCENTRAL IDAHO


CITY           SKY/WX    TMP DP  RH WIND       PRES   REMARKS
BURLEY         MOCLDY    54  36  50 W7        29.77R
JEROME         MOCLDY    52  35  52 W12       29.79R
TWIN FALLS     MOCLDY    50  38  63 W8        29.80R
$$

IDZ019>023-240400-
SOUTHEAST IDAHO


CITY           SKY/WX    TMP DP  RH WIND       PRES   REMARKS
IDAHO FALLS    CLOUDY    49  35  58 CALM      29.79R
POCATELLO      CLEAR     46  36  68 S7        29.79S
REXBURG        CLOUDY    46  36  68 E6        29.80R
$$

IDZ006-010-011-018-031-032-240400-
CENTRAL IDAHO MOUNTAINS


CITY           SKY/WX    TMP DP  RH WIND       PRES   REMARKS
MCCALL         CLOUDY    40  34  79 E6        29.78S
HAILEY         PTCLDY    50  28  43 SW6       29.81R
STANLEY          N/A     39  32  76 CALM      29.83S
SALMON         PTCLDY    43  37  81 CALM      29.77F
CHALLIS        MOCLDY    44  31  60 NW7       29.77R
$$

IDZ002-004-006-007-026-240400-
NORTHERN IDAHO


CITY           SKY/WX    TMP DP  RH WIND       PRES   REMARKS
LEWISTON       CLOUDY    53  41  63 S9        29.78F
LOWELL           N/A     48  45  89 CALM      29.84R
COEUR D`ALENE  CLOUDY    48  38  68 SW8       29.75S
MULLAN PASS    CLOUDY    33  31  92 VRB6      29.76S WCI  28
$$




USA.gov is the U.S. government's official web portal to all federal, state and local government web resources and services.